Location: Newark
(49.5647°N, 8.2922°E)
Time: 14:42:55
(UTC+00:00)

Transit 2A - Pass Details

Date: 18 February 2020
Orbit: 597 x 962 km, 66.7° (Epoch: 04 April)

Event Time Altitude Azimuth Distance (km) Brightness Sun altitude
Rises 23:11:09 0° 314° (NW) 3,092 - -51.5°
Reaches altitude 10° 23:13:47 10° 300° (WNW) 2,230 - -51.6°
Maximum altitude 23:17:48 24° 248° (WSW) 1,568 - -51.7°
Drops below altitude 10° 23:22:07 10° 197° (SSW) 2,412 - -51.8°
Sets 23:25:05 0° 184° (S) 3,408 - -51.8°
